sat.trackr.live / text

‹ back to catalog

STARLINK-5862

NORAD 55920 · 2023-037G

PAYLOAD ACTIVE UNKNOWN

§ Identity

Operator
Country
US
Launch date
2023-03-17
Launch site
AFWTR
Launch vehicle
Mass (kg)
RCS (m²)

Purposes: comms

External: N2YO · Heavens-Above · Gunter

§ Orbital elements

Epoch: 2026-09-20T22:00:03.000096Z

Period
95.76 min
Inclination
70.0004°
Eccentricity
0.0003188
Mean motion
15.03739213 rev/d
Perigee alt
553.2 km
Apogee alt
557.6 km
Semi-major
6,933.5 km
B*
2.2892e-3
RAAN
152.3395°
Arg perigee
274.8139°
Mean anomaly
330.0144°
Rev number
571

§ Raw data

STARLINK-58621 55920U 23037G   26263.91670139  .00031520  00000+0  22892-2 0  99962 55920  70.0004 152.3395 0003188 274.8139 330.0144 15.03739213  5718

JSON: /api/v1/satellites/55920 · /tle

For live sub-satellite position, see the globe view (requires WebGL).

§ Visibility from observer

Set your observer location to see the next 7 days of passes ≥ 10°. The values pass through the URL so the page stays shareable.

No JS? Fill the form by hand. The geolocation button needs JavaScript.